Time,TemperatureF,DewpointF,PressureIn,WindDirection,WindDirectionDegrees,WindSpeedMPH,WindSpeedGustMPH,Humidity,HourlyPrecipIn,Conditions,Clouds,dailyrainin,SoftwareType,DateUTC
2013-07-21 00:05:00,63.7,56.0,29.92,NE,51,1.0,1.0,76,0.00,,,0.00,Wunderground v.1.15,2013-07-21 04:05:00,
2013-07-21 00:11:00,63.5,56.2,29.92,NE,51,1.0,1.0,77,0.00,,,0.00,Wunderground v.1.15,2013-07-21 04:11:00,
2013-07-21 00:16:00,63.2,56.2,29.92,West,280,0.0,1.0,78,0.00,,,0.00,Wunderground v.1.15,2013-07-21 04:16:00,
2013-07-21 00:25:00,62.9,55.9,29.92,West,262,1.0,1.0,78,0.00,,,0.00,Wunderground v.1.15,2013-07-21 04:25:00,
2013-07-21 00:30:00,62.8,55.5,29.92,West,262,1.0,1.0,77,0.00,,,0.00,Wunderground v.1.15,2013-07-21 04:30:00,
2013-07-21 00:36:00,62.6,55.3,29.92,West,267,1.0,1.0,77,0.00,,,0.00,Wunderground v.1.15,2013-07-21 04:36:00,
2013-07-21 00:46:00,62.5,55.2,29.92,West,267,1.0,2.0,77,0.00,,,0.00,Wunderground v.1.15,2013-07-21 04:46:00,
2013-07-21 00:51:00,62.6,55.3,29.92,West,267,1.0,1.0,77,0.00,,,0.00,Wunderground v.1.15,2013-07-21 04:51:00,
2013-07-21 01:00:00,62.4,55.4,29.93,West,267,0.0,0.0,78,0.00,,,0.00,Wunderground v.1.15,2013-07-21 05:00:00,
2013-07-21 01:10:00,62.0,55.1,29.93,West,267,0.0,0.0,78,0.00,,,0.00,Wunderground v.1.15,2013-07-21 05:10:00,
2013-07-21 01:20:00,61.6,54.7,29.93,West,267,0.0,1.0,78,0.00,,,0.00,Wunderground v.1.15,2013-07-21 05:20:00,
2013-07-21 01:25:00,61.4,54.5,29.93,West,267,1.0,1.0,78,0.00,,,0.00,Wunderground v.1.15,2013-07-21 05:25:00,
2013-07-21 01:35:00,61.2,54.3,29.93,West,267,1.0,2.0,78,0.00,,,0.00,Wunderground v.1.15,2013-07-21 05:35:00,
2013-07-21 01:40:00,61.0,54.1,29.93,West,267,1.0,1.0,78,0.00,,,0.00,Wunderground v.1.15,2013-07-21 05:40:00,
2013-07-21 01:50:00,60.7,54.1,29.93,West,267,1.0,2.0,79,0.00,,,0.00,Wunderground v.1.15,2013-07-21 05:50:00,
2013-07-21 02:00:00,60.4,54.2,29.93,West,267,1.0,1.0,80,0.00,,,0.00,Wunderground v.1.15,2013-07-21 06:00:00,
2013-07-21 02:10:00,60.0,53.8,29.94,West,267,1.0,1.0,80,0.00,,,0.00,Wunderground v.1.15,2013-07-21 06:10:00,
2013-07-21 02:15:00,59.9,54.1,29.93,West,267,1.0,1.0,81,0.00,,,0.00,Wunderground v.1.15,2013-07-21 06:15:00,
2013-07-21 02:25:00,59.6,53.8,29.93,West,267,0.0,2.0,81,0.00,,,0.00,Wunderground v.1.15,2013-07-21 06:25:00,
2013-07-21 02:35:00,59.4,53.9,29.93,West,267,2.0,2.0,82,0.00,,,0.00,Wunderground v.1.15,2013-07-21 06:35:00,
2013-07-21 02:45:00,59.0,53.5,29.94,West,267,1.0,1.0,82,0.00,,,0.00,Wunderground v.1.15,2013-07-21 06:45:00,
2013-07-21 02:50:00,58.7,53.5,29.93,West,267,1.0,2.0,83,0.00,,,0.00,Wunderground v.1.15,2013-07-21 06:50:00,
2013-07-21 03:00:00,58.4,53.3,29.93,West,267,1.0,1.0,83,0.00,,,0.00,Wunderground v.1.15,2013-07-21 07:00:00,
2013-07-21 03:10:00,58.4,53.6,29.93,West,267,0.0,0.0,84,0.00,,,0.00,Wunderground v.1.15,2013-07-21 07:10:00,
2013-07-21 03:15:00,58.3,53.5,29.93,West,267,0.0,0.0,84,0.00,,,0.00,Wunderground v.1.15,2013-07-21 07:15:00,
2013-07-21 03:20:00,58.3,53.5,29.94,West,267,0.0,0.0,84,0.00,,,0.00,Wunderground v.1.15,2013-07-21 07:20:00,
2013-07-21 03:25:00,58.1,53.3,29.94,NW,317,1.0,1.0,84,0.00,,,0.00,Wunderground v.1.15,2013-07-21 07:25:00,
2013-07-21 03:35:00,58.0,52.9,29.94,NW,316,0.0,1.0,83,0.00,,,0.00,Wunderground v.1.15,2013-07-21 07:35:00,
2013-07-21 03:45:00,57.7,52.9,29.94,NW,316,1.0,1.0,84,0.00,,,0.00,Wunderground v.1.15,2013-07-21 07:45:00,
2013-07-21 03:55:00,57.5,52.7,29.94,NW,316,1.0,2.0,84,0.00,,,0.00,Wunderground v.1.15,2013-07-21 07:55:00,
2013-07-21 04:00:00,57.4,52.3,29.94,NW,316,1.0,1.0,83,0.00,,,0.00,Wunderground v.1.15,2013-07-21 08:00:00,
2013-07-21 04:05:00,57.4,52.6,29.94,NW,316,0.0,1.0,84,0.00,,,0.00,Wunderground v.1.15,2013-07-21 08:05:00,
2013-07-21 04:10:00,57.3,52.2,29.94,NW,316,0.0,1.0,83,0.00,,,0.00,Wunderground v.1.15,2013-07-21 08:10:00,
2013-07-21 04:20:00,57.1,52.3,29.94,NW,312,2.0,2.0,84,0.00,,,0.00,Wunderground v.1.15,2013-07-21 08:20:00,
2013-07-21 04:30:00,56.9,52.1,29.94,NW,311,2.0,2.0,84,0.00,,,0.00,Wunderground v.1.15,2013-07-21 08:30:00,
2013-07-21 04:35:00,56.8,52.0,29.94,WNW,296,2.0,2.0,84,0.00,,,0.00,Wunderground v.1.15,2013-07-21 08:35:00,
2013-07-21 04:45:00,56.6,51.5,29.94,WNW,296,2.0,2.0,83,0.00,,,0.00,Wunderground v.1.15,2013-07-21 08:45:00,
2013-07-21 04:55:00,56.4,51.3,29.94,WNW,296,2.0,2.0,83,0.00,,,0.00,Wunderground v.1.15,2013-07-21 08:55:00,
2013-07-21 05:00:00,56.3,51.2,29.94,WNW,296,1.0,1.0,83,0.00,,,0.00,Wunderground v.1.15,2013-07-21 09:00:00,
2013-07-21 05:10:00,56.0,50.9,29.94,WNW,296,1.0,1.0,83,0.00,,,0.00,Wunderground v.1.15,2013-07-21 09:10:00,
2013-07-21 05:15:00,55.8,50.7,29.94,WNW,296,1.0,2.0,83,0.00,,,0.00,Wunderground v.1.15,2013-07-21 09:15:00,
2013-07-21 05:20:00,55.6,50.8,29.95,WNW,296,1.0,1.0,84,0.00,,,0.00,Wunderground v.1.15,2013-07-21 09:20:00,
2013-07-21 05:25:00,55.5,50.7,29.95,NW,311,1.0,2.0,84,0.00,,,0.00,Wunderground v.1.15,2013-07-21 09:25:00,
2013-07-21 05:30:00,55.5,50.7,29.95,NW,311,1.0,1.0,84,0.00,,,0.00,Wunderground v.1.15,2013-07-21 09:30:00,
2013-07-21 05:40:00,55.3,50.5,29.95,North,5,2.0,2.0,84,0.00,,,0.00,Wunderground v.1.15,2013-07-21 09:40:00,
2013-07-21 05:45:00,55.2,50.4,29.95,North,5,2.0,2.0,84,0.00,,,0.00,Wunderground v.1.15,2013-07-21 09:45:00,
2013-07-21 05:50:00,55.0,50.6,29.95,North,5,1.0,1.0,85,0.00,,,0.00,Wunderground v.1.15,2013-07-21 09:50:00,
2013-07-21 05:55:00,54.9,50.5,29.95,North,5,1.0,1.0,85,0.00,,,0.00,Wunderground v.1.15,2013-07-21 09:55:00,
2013-07-21 06:05:00,54.7,50.3,29.95,North,349,1.0,3.0,85,0.00,,,0.00,Wunderground v.1.15,2013-07-21 10:05:00,
2013-07-21 06:10:00,54.7,50.3,29.95,NNW,348,1.0,1.0,85,0.00,,,0.00,Wunderground v.1.15,2013-07-21 10:10:00,
2013-07-21 06:20:00,54.6,50.2,29.95,NNW,348,0.0,0.0,85,0.00,,,0.00,Wunderground v.1.15,2013-07-21 10:20:00,
2013-07-21 06:30:00,54.5,50.4,29.96,North,5,1.0,1.0,86,0.00,,,0.00,Wunderground v.1.15,2013-07-21 10:30:00,
2013-07-21 06:35:00,54.5,51.3,29.96,North,5,1.0,1.0,89,0.00,,,0.00,Wunderground v.1.15,2013-07-21 10:35:00,
2013-07-21 06:40:00,54.4,50.6,29.97,North,5,0.0,0.0,87,0.00,,,0.00,Wunderground v.1.15,2013-07-21 10:40:00,
2013-07-21 06:50:00,54.4,50.6,29.97,North,5,1.0,1.0,87,0.00,,,0.00,Wunderground v.1.15,2013-07-21 10:50:00,
2013-07-21 06:55:00,54.4,50.6,29.97,North,5,1.0,1.0,87,0.00,,,0.00,Wunderground v.1.15,2013-07-21 10:55:00,
2013-07-21 07:00:00,54.5,50.7,29.97,North,5,0.0,0.0,87,0.00,,,0.00,Wunderground v.1.15,2013-07-21 11:00:00,
2013-07-21 07:05:00,54.6,50.8,29.96,North,5,0.0,0.0,87,0.00,,,0.00,Wunderground v.1.15,2013-07-21 11:05:00,
2013-07-21 07:15:00,54.9,51.1,29.97,North,5,0.0,1.0,87,0.00,,,0.00,Wunderground v.1.15,2013-07-21 11:15:00,
2013-07-21 07:20:00,55.2,51.4,29.97,North,5,0.0,1.0,87,0.00,,,0.00,Wunderground v.1.15,2013-07-21 11:20:00,
2013-07-21 07:25:00,55.5,51.4,29.97,North,5,1.0,2.0,86,0.00,,,0.00,Wunderground v.1.15,2013-07-21 11:25:00,
2013-07-21 07:35:00,56.3,51.8,29.97,North,5,3.0,4.0,85,0.00,,,0.00,Wunderground v.1.15,2013-07-21 11:35:00,
2013-07-21 07:40:00,56.8,52.0,29.97,North,11,3.0,3.0,84,0.00,,,0.00,Wunderground v.1.15,2013-07-21 11:40:00,
2013-07-21 07:50:00,57.5,52.0,29.97,North,9,3.0,3.0,82,0.00,,,0.00,Wunderground v.1.15,2013-07-21 11:50:00,
2013-07-21 08:00:00,58.3,52.2,29.98,North,9,2.0,3.0,80,0.00,,,0.00,Wunderground v.1.15,2013-07-21 12:00:00,
2013-07-21 08:05:00,58.6,52.1,29.98,North,9,2.0,3.0,79,0.00,,,0.00,Wunderground v.1.15,2013-07-21 12:05:00,
2013-07-21 08:10:00,58.9,52.1,29.98,North,9,3.0,3.0,78,0.00,,,0.00,Wunderground v.1.15,2013-07-21 12:10:00,
2013-07-21 08:20:00,59.5,52.6,29.99,North,9,3.0,3.0,78,0.00,,,0.00,Wunderground v.1.15,2013-07-21 12:20:00,
2013-07-21 08:25:00,59.8,52.6,29.98,North,9,3.0,3.0,77,0.00,,,0.00,Wunderground v.1.15,2013-07-21 12:25:00,
2013-07-21 08:35:00,60.2,53.0,29.98,NNE,17,3.0,4.0,77,0.00,,,0.00,Wunderground v.1.15,2013-07-21 12:35:00,
2013-07-21 08:40:00,60.6,53.0,29.98,ENE,63,3.0,4.0,76,0.00,,,0.00,Wunderground v.1.15,2013-07-21 12:40:00,
2013-07-21 08:45:00,61.0,53.4,29.98,NE,48,3.0,4.0,76,0.00,,,0.00,Wunderground v.1.15,2013-07-21 12:45:00,
2013-07-21 08:55:00,61.8,53.8,29.98,ESE,105,2.0,3.0,75,0.00,,,0.00,Wunderground v.1.15,2013-07-21 12:55:00,
2013-07-21 09:00:00,62.4,54.0,29.98,East,92,2.0,5.0,74,0.00,,,0.00,Wunderground v.1.15,2013-07-21 13:00:00,
2013-07-21 09:10:00,63.5,54.7,29.98,ESE,113,3.0,5.0,73,0.00,,,0.00,Wunderground v.1.15,2013-07-21 13:10:00,
2013-07-21 09:20:00,64.1,54.9,29.98,ESE,119,3.0,3.0,72,0.00,,,0.00,Wunderground v.1.15,2013-07-21 13:20:00,
2013-07-21 09:25:00,64.5,54.9,29.99,SE,135,3.0,3.0,71,0.00,,,0.00,Wunderground v.1.15,2013-07-21 13:25:00,
2013-07-21 09:35:00,65.0,55.0,29.99,ENE,61,1.0,4.0,70,0.00,,,0.00,Wunderground v.1.15,2013-07-21 13:35:00,
2013-07-21 09:45:00,65.7,55.2,29.98,NE,46,2.0,3.0,69,0.00,,,0.00,Wunderground v.1.15,2013-07-21 13:45:00,
2013-07-21 09:55:00,66.0,54.7,29.98,ENE,64,2.0,3.0,67,0.00,,,0.00,Wunderground v.1.15,2013-07-21 13:55:00,
2013-07-21 10:00:00,66.0,54.7,29.99,East,79,1.0,1.0,67,0.00,,,0.00,Wunderground v.1.15,2013-07-21 14:00:00,
2013-07-21 10:10:00,67.0,56.1,29.99,NE,36,1.0,1.0,68,0.00,,,0.00,Wunderground v.1.15,2013-07-21 14:10:00,
2013-07-21 10:20:00,67.7,55.9,29.99,North,360,2.0,2.0,66,0.00,,,0.00,Wunderground v.1.15,2013-07-21 14:20:00,
2013-07-21 10:25:00,68.1,57.1,29.99,North,351,2.0,3.0,68,0.00,,,0.00,Wunderground v.1.15,2013-07-21 14:25:00,
2013-07-21 10:35:00,68.6,56.4,29.99,North,355,1.0,2.0,65,0.00,,,0.00,Wunderground v.1.15,2013-07-21 14:35:00,
2013-07-21 10:40:00,69.0,55.9,29.98,ENE,74,1.0,3.0,63,0.00,,,0.00,Wunderground v.1.15,2013-07-21 14:40:00,
2013-07-21 10:45:00,68.9,55.8,29.98,NE,55,2.0,3.0,63,0.00,,,0.00,Wunderground v.1.15,2013-07-21 14:45:00,
2013-07-21 10:55:00,69.2,56.1,29.98,NE,35,1.0,2.0,63,0.00,,,0.00,Wunderground v.1.15,2013-07-21 14:55:00,
2013-07-21 11:00:00,69.5,56.8,29.98,North,349,1.0,1.0,64,0.00,,,0.00,Wunderground v.1.15,2013-07-21 15:00:00,
2013-07-21 11:10:00,69.9,56.3,29.98,NE,39,1.0,1.0,62,0.00,,,0.00,Wunderground v.1.15,2013-07-21 15:10:00,
2013-07-21 11:15:00,70.4,57.2,29.98,NE,38,1.0,1.0,63,0.00,,,0.00,Wunderground v.1.15,2013-07-21 15:15:00,
2013-07-21 11:20:00,70.9,57.2,29.98,NE,34,1.0,2.0,62,0.00,,,0.00,Wunderground v.1.15,2013-07-21 15:20:00,
2013-07-21 11:30:00,71.1,57.4,29.99,WSW,246,2.0,2.0,62,0.00,,,0.00,Wunderground v.1.15,2013-07-21 15:30:00,
2013-07-21 11:35:00,71.6,57.9,29.98,South,181,1.0,2.0,62,0.00,,,0.00,Wunderground v.1.15,2013-07-21 15:35:00,
2013-07-21 11:40:00,72.2,58.0,29.98,ESE,123,1.0,2.0,61,0.00,,,0.00,Wunderground v.1.15,2013-07-21 15:40:00,
2013-07-21 11:50:00,72.1,57.4,29.98,ESE,109,3.0,3.0,60,0.00,,,0.00,Wunderground v.1.15,2013-07-21 15:50:00,
2013-07-21 12:00:00,73.1,57.9,29.98,ENE,63,1.0,2.0,59,0.00,,,0.00,Wunderground v.1.15,2013-07-21 16:00:00,
2013-07-21 12:10:00,73.0,57.8,29.98,WNW,286,3.0,3.0,59,0.00,,,0.00,Wunderground v.1.15,2013-07-21 16:10:00,
2013-07-21 12:20:00,72.7,58.0,29.98,SW,235,2.0,2.0,60,0.00,,,0.00,Wunderground v.1.15,2013-07-21 16:20:00,
2013-07-21 12:30:00,73.0,57.8,29.97,East,86,2.0,3.0,59,0.00,,,0.00,Wunderground v.1.15,2013-07-21 16:30:00,
2013-07-21 12:35:00,73.5,59.2,29.97,WSW,252,2.0,3.0,61,0.00,,,0.00,Wunderground v.1.15,2013-07-21 16:35:00,
2013-07-21 12:40:00,74.0,57.3,29.97,ESE,117,2.0,2.0,56,0.00,,,0.00,Wunderground v.1.15,2013-07-21 16:40:00,
2013-07-21 12:45:00,74.0,57.3,29.97,ESE,119,3.0,3.0,56,0.00,,,0.00,Wunderground v.1.15,2013-07-21 16:45:00,
2013-07-21 12:55:00,74.9,58.1,29.97,NNW,346,2.0,3.0,56,0.00,,,0.00,Wunderground v.1.15,2013-07-21 16:55:00,
2013-07-21 13:00:00,75.1,57.8,29.97,ENE,61,2.0,4.0,55,0.00,,,0.00,Wunderground v.1.15,2013-07-21 17:00:00,
2013-07-21 13:10:00,75.2,57.9,29.96,NE,53,3.0,6.0,55,0.00,,,0.00,Wunderground v.1.15,2013-07-21 17:10:00,
2013-07-21 13:25:00,76.0,57.1,29.96,East,82,3.0,3.0,52,0.00,,,0.00,Wunderground v.1.15,2013-07-21 17:25:00,
2013-07-21 13:40:00,76.6,57.1,29.96,NE,51,2.0,3.0,51,0.00,,,0.00,Wunderground v.1.15,2013-07-21 17:40:00,
2013-07-21 13:51:00,77.0,56.9,29.96,East,98,3.0,3.0,50,0.00,,,0.00,Wunderground v.1.15,2013-07-21 17:51:00,
2013-07-21 13:56:00,77.3,57.8,29.96,NW,304,3.0,6.0,51,0.00,,,0.00,Wunderground v.1.15,2013-07-21 17:56:00,
2013-07-21 14:05:00,77.4,56.7,29.96,WNW,294,2.0,4.0,49,0.00,,,0.00,Wunderground v.1.15,2013-07-21 18:05:00,
2013-07-21 14:10:00,77.3,56.6,29.96,West,259,3.0,4.0,49,0.00,,,0.00,Wunderground v.1.15,2013-07-21 18:10:00,
2013-07-21 14:20:00,76.8,56.8,29.96,NW,305,3.0,3.0,50,0.00,,,0.00,Wunderground v.1.15,2013-07-21 18:20:00,
2013-07-21 14:25:00,77.3,56.1,29.96,North,351,1.0,3.0,48,0.00,,,0.00,Wunderground v.1.15,2013-07-21 18:25:00,
2013-07-21 14:30:00,77.8,56.5,29.95,WSW,255,2.0,2.0,48,0.00,,,0.00,Wunderground v.1.15,2013-07-21 18:30:00,
2013-07-21 14:40:00,77.7,54.7,29.95,East,80,3.0,3.0,45,0.00,,,0.00,Wunderground v.1.15,2013-07-21 18:40:00,
2013-07-21 14:45:00,77.7,54.7,29.95,WNW,300,2.0,3.0,45,0.00,,,0.00,Wunderground v.1.15,2013-07-21 18:45:00,
2013-07-21 14:55:00,77.8,54.8,29.95,NNW,346,2.0,2.0,45,0.00,,,0.00,Wunderground v.1.15,2013-07-21 18:55:00,
2013-07-21 15:05:00,78.6,54.2,29.95,North,355,1.0,3.0,43,0.00,,,0.00,Wunderground v.1.15,2013-07-21 19:05:00,
2013-07-21 15:10:00,78.7,55.0,29.95,North,355,1.0,1.0,44,0.00,,,0.00,Wunderground v.1.15,2013-07-21 19:10:00,
2013-07-21 15:15:00,79.2,56.0,29.95,North,351,0.0,1.0,45,0.00,,,0.00,Wunderground v.1.15,2013-07-21 19:15:00,
2013-07-21 15:25:00,79.2,55.4,29.95,NNE,26,1.0,3.0,44,0.00,,,0.00,Wunderground v.1.15,2013-07-21 19:25:00,
2013-07-21 15:30:00,79.4,56.8,29.95,ESE,107,2.0,5.0,46,0.00,,,0.00,Wunderground v.1.15,2013-07-21 19:30:00,
2013-07-21 15:40:00,79.6,55.8,29.94,SE,131,3.0,3.0,44,0.00,,,0.00,Wunderground v.1.15,2013-07-21 19:40:00,
2013-07-21 15:45:00,79.5,56.3,29.93,SW,220,2.0,3.0,45,0.00,,,0.00,Wunderground v.1.15,2013-07-21 19:45:00,
2013-07-21 15:55:00,79.8,56.6,29.93,SSE,151,2.0,4.0,45,0.00,,,0.00,Wunderground v.1.15,2013-07-21 19:55:00,
2013-07-21 16:00:00,79.9,55.4,29.93,ESE,119,2.0,2.0,43,0.00,,,0.00,Wunderground v.1.15,2013-07-21 20:00:00,
2013-07-21 16:10:00,79.8,55.3,29.93,SE,137,2.0,5.0,43,0.00,,,0.00,Wunderground v.1.15,2013-07-21 20:10:00,
2013-07-21 16:20:00,79.7,55.9,29.92,NNW,333,2.0,2.0,44,0.00,,,0.00,Wunderground v.1.15,2013-07-21 20:20:00,
2013-07-21 16:25:00,79.7,57.1,29.92,NNW,333,2.0,2.0,46,0.00,,,0.00,Wunderground v.1.15,2013-07-21 20:25:00,
2013-07-21 16:35:00,80.4,57.1,29.92,ESE,114,1.0,1.0,45,0.00,,,0.00,Wunderground v.1.15,2013-07-21 20:35:00,
2013-07-21 16:45:00,80.1,56.8,29.92,ESE,118,2.0,3.0,45,0.00,,,0.00,Wunderground v.1.15,2013-07-21 20:45:00,
2013-07-21 16:55:00,80.2,56.9,29.92,ENE,74,2.0,3.0,45,0.00,,,0.00,Wunderground v.1.15,2013-07-21 20:55:00,
2013-07-21 17:05:00,80.2,57.5,29.92,ENE,67,3.0,3.0,46,0.00,,,0.00,Wunderground v.1.15,2013-07-21 21:05:00,
2013-07-21 17:15:00,79.6,57.0,29.91,East,87,3.0,6.0,46,0.00,,,0.00,Wunderground v.1.15,2013-07-21 21:15:00,
2013-07-21 17:20:00,79.7,58.3,29.91,NE,51,2.0,5.0,48,0.00,,,0.00,Wunderground v.1.15,2013-07-21 21:20:00,
2013-07-21 17:30:00,80.0,57.4,29.91,NNE,18,5.0,5.0,46,0.00,,,0.00,Wunderground v.1.15,2013-07-21 21:30:00,
2013-07-21 17:40:00,79.9,58.5,29.91,NE,43,4.0,4.0,48,0.00,,,0.00,Wunderground v.1.15,2013-07-21 21:40:00,
2013-07-21 17:45:00,79.9,60.2,29.90,NE,55,4.0,4.0,51,0.00,,,0.00,Wunderground v.1.15,2013-07-21 21:45:00,
2013-07-21 17:55:00,79.9,59.6,29.90,ENE,60,5.0,5.0,50,0.00,,,0.00,Wunderground v.1.15,2013-07-21 21:55:00,
2013-07-21 18:00:00,79.8,59.5,29.89,ENE,60,5.0,5.0,50,0.00,,,0.00,Wunderground v.1.15,2013-07-21 22:00:00,
2013-07-21 18:05:00,79.2,59.5,29.89,NE,47,4.0,5.0,51,0.00,,,0.00,Wunderground v.1.15,2013-07-21 22:05:00,
2013-07-21 18:10:00,78.8,59.1,29.89,NE,46,4.0,5.0,51,0.00,,,0.00,Wunderground v.1.15,2013-07-21 22:10:00,
2013-07-21 18:20:00,78.5,58.9,29.89,ENE,71,5.0,5.0,51,0.00,,,0.00,Wunderground v.1.15,2013-07-21 22:20:00,
2013-07-21 18:25:00,78.8,59.1,29.89,East,99,5.0,5.0,51,0.00,,,0.00,Wunderground v.1.15,2013-07-21 22:25:00,
2013-07-21 18:30:00,78.9,58.7,29.90,NE,53,5.0,6.0,50,0.00,,,0.00,Wunderground v.1.15,2013-07-21 22:30:00,
2013-07-21 18:40:00,78.7,59.0,29.90,ENE,57,5.0,5.0,51,0.00,,,0.00,Wunderground v.1.15,2013-07-21 22:40:00,
2013-07-21 18:45:00,78.7,59.0,29.90,East,82,5.0,5.0,51,0.00,,,0.00,Wunderground v.1.15,2013-07-21 22:45:00,
2013-07-21 18:55:00,78.6,58.4,29.90,East,82,3.0,5.0,50,0.00,,,0.00,Wunderground v.1.15,2013-07-21 22:55:00,
2013-07-21 19:01:00,78.5,58.3,29.89,ESE,109,4.0,5.0,50,0.00,,,0.00,Wunderground v.1.15,2013-07-21 23:01:00,
2013-07-21 19:10:00,78.3,58.7,29.89,ENE,58,4.0,4.0,51,0.00,,,0.00,Wunderground v.1.15,2013-07-21 23:10:00,
2013-07-21 19:15:00,78.1,59.6,29.88,East,101,4.0,4.0,53,0.00,,,0.00,Wunderground v.1.15,2013-07-21 23:15:00,
2013-07-21 19:25:00,77.7,59.2,29.89,NE,49,5.0,5.0,53,0.00,,,0.00,Wunderground v.1.15,2013-07-21 23:25:00,
2013-07-21 19:35:00,77.2,58.7,29.90,ENE,67,4.0,4.0,53,0.00,,,0.00,Wunderground v.1.15,2013-07-21 23:35:00,
2013-07-21 19:55:00,76.7,58.8,29.91,NE,47,4.0,5.0,54,0.00,,,0.00,Wunderground v.1.15,2013-07-21 23:55:00,
2013-07-21 20:00:00,76.6,58.7,29.90,NE,53,5.0,5.0,54,0.00,,,0.00,Wunderground v.1.15,2013-07-22 00:00:00,
2013-07-21 20:10:00,76.0,58.7,29.91,ENE,70,5.0,5.0,55,0.00,,,0.00,Wunderground v.1.15,2013-07-22 00:10:00,
2013-07-21 20:15:00,75.8,59.0,29.91,NE,52,4.0,5.0,56,0.00,,,0.00,Wunderground v.1.15,2013-07-22 00:15:00,
2013-07-21 20:25:00,75.4,59.6,29.91,East,85,4.0,6.0,58,0.00,,,0.00,Wunderground v.1.15,2013-07-22 00:25:00,
2013-07-21 20:30:00,75.0,59.7,29.91,NE,50,4.0,5.0,59,0.00,,,0.00,Wunderground v.1.15,2013-07-22 00:30:00,
2013-07-21 20:40:00,74.6,59.8,29.90,ENE,75,4.0,4.0,60,0.00,,,0.00,Wunderground v.1.15,2013-07-22 00:40:00,
2013-07-21 20:45:00,74.2,59.9,29.91,East,83,4.0,4.0,61,0.00,,,0.00,Wunderground v.1.15,2013-07-22 00:45:00,
2013-07-21 20:55:00,73.9,59.6,29.90,ENE,74,4.0,4.0,61,0.00,,,0.00,Wunderground v.1.15,2013-07-22 00:55:00,
2013-07-21 21:00:00,73.7,59.9,29.90,East,79,4.0,4.0,62,0.00,,,0.00,Wunderground v.1.15,2013-07-22 01:00:00,
2013-07-21 21:10:00,73.0,60.1,29.90,East,82,5.0,6.0,64,0.00,,,0.00,Wunderground v.1.15,2013-07-22 01:10:00,
2013-07-21 21:15:00,72.6,59.7,29.90,ENE,74,4.0,6.0,64,0.00,,,0.00,Wunderground v.1.15,2013-07-22 01:15:00,
2013-07-21 21:26:00,71.9,59.1,29.90,ENE,58,6.0,7.0,64,0.00,,,0.00,Wunderground v.1.15,2013-07-22 01:26:00,
2013-07-21 21:35:00,71.5,58.7,29.91,ENE,71,5.0,6.0,64,0.00,,,0.00,Wunderground v.1.15,2013-07-22 01:35:00,
2013-07-21 21:45:00,71.1,58.3,29.91,ESE,104,5.0,5.0,64,0.00,,,0.00,Wunderground v.1.15,2013-07-22 01:45:00,
2013-07-21 21:55:00,70.8,58.4,29.91,East,89,5.0,5.0,65,0.00,,,0.00,Wunderground v.1.15,2013-07-22 01:55:00,
2013-07-21 22:00:00,70.7,58.4,29.91,ENE,69,4.0,5.0,65,0.00,,,0.00,Wunderground v.1.15,2013-07-22 02:00:00,
2013-07-21 22:10:00,70.6,58.3,29.91,East,85,4.0,4.0,65,0.00,,,0.00,Wunderground v.1.15,2013-07-22 02:10:00,
2013-07-21 22:16:00,70.5,58.2,29.91,ENE,76,3.0,6.0,65,0.00,,,0.00,Wunderground v.1.15,2013-07-22 02:16:00,
2013-07-21 22:25:00,70.3,58.4,29.91,East,88,4.0,6.0,66,0.00,,,0.00,Wunderground v.1.15,2013-07-22 02:25:00,
2013-07-21 22:30:00,70.1,58.2,29.91,NE,44,5.0,6.0,66,0.00,,,0.00,Wunderground v.1.15,2013-07-22 02:30:00,
2013-07-21 22:40:00,69.9,58.4,29.91,ENE,70,4.0,6.0,67,0.00,,,0.00,Wunderground v.1.15,2013-07-22 02:40:00,
2013-07-21 22:45:00,69.7,58.3,29.91,ENE,68,4.0,6.0,67,0.00,,,0.00,Wunderground v.1.15,2013-07-22 02:45:00,
2013-07-21 22:55:00,69.5,58.1,29.91,ENE,74,5.0,5.0,67,0.00,,,0.00,Wunderground v.1.15,2013-07-22 02:55:00,
2013-07-21 23:00:00,69.4,58.0,29.91,ENE,67,4.0,5.0,67,0.00,,,0.00,Wunderground v.1.15,2013-07-22 03:00:00,
2013-07-21 23:10:00,69.4,58.4,29.91,East,98,4.0,4.0,68,0.00,,,0.00,Wunderground v.1.15,2013-07-22 03:10:00,
2013-07-21 23:15:00,69.4,58.4,29.90,East,93,4.0,5.0,68,0.00,,,0.00,Wunderground v.1.15,2013-07-22 03:15:00,
2013-07-21 23:20:00,69.3,58.3,29.90,East,101,4.0,6.0,68,0.00,,,0.00,Wunderground v.1.15,2013-07-22 03:20:00,
2013-07-21 23:26:00,69.2,57.8,29.91,SE,129,4.0,6.0,67,0.00,,,0.00,Wunderground v.1.15,2013-07-22 03:26:00,
2013-07-21 23:40:00,69.4,56.7,29.91,ESE,104,5.0,5.0,64,0.00,,,0.00,Wunderground v.1.15,2013-07-22 03:40:00,
2013-07-21 23:50:00,69.5,56.8,29.91,SE,127,5.0,5.0,64,0.00,,,0.00,Wunderground v.1.15,2013-07-22 03:50:00,
2013-07-21 23:55:00,69.4,56.7,29.91,SSE,149,5.0,12.0,64,0.00,,,0.00,Wunderground v.1.15,2013-07-22 03:55:00,